Location: Cheching
(60.0667°N, 164.2167°W)
Time: 14:29:46
(UTC+00:00)

STRAND 1 - Pass Details

Date: 19 January 2021
Orbit: 768 x 780 km, 98.4° (Epoch: 04 March)

Event Time Altitude Azimuth Distance (km) Brightness Sun altitude
Rises 18:34:38 0° 207° (SSW) 3,237 ? -7.2°
Reaches altitude 10° 18:37:26 10° 222° (SW) 2,317 ? -6.9°
Maximum altitude 18:41:21 22° 273° (W) 1,649 ? -6.5°
Drops below altitude 10° 18:45:19 10° 323° (NW) 2,335 ? -6.0°
Sets 18:48:10 0° 339° (NNW) 3,269 ? -5.7°
Enters shadow 18:48:17 - 339° (NNW) 3,311 ? -5.7°
